Zurück zum Katalog

FENGYUN 1C DEB

AktivSSO
NORAD 31622·DEBRIS·🇨🇳 China

Gestartet May 10, 1999 von Taiyuan Satellite Launch Center

Loading…

Nächste Überflüge (nächste 24 Stunden)

TLE

AktuellSource: Space-Track

Epoche: Sep 14, 2026, 13:38 UTC

1 31622U 99025CAC 26257.56871383  .00003493  00000-0  11228-2 0  9997
2 31622  98.8197   4.8165 0015031 239.8654 241.8926 14.39971229997384

Verfolge FENGYUN 1C DEB in Echtzeit mit AllMySat

Download on the App Store